Terminal Aerodrome Forecast
Issued by NWS

Home | Current Version | Previous Version | Text Only | Print | Product List | Glossary On
Versions: 1 2 3 4 5 6 7 8 9 10 11 12 13 14 15 16 17 18 19 20 21 22 23 24 25 26 27 28 29 30 31
000
FTAK31 PANC 311726
TAFAHO
TAF
PAHO 311726Z 3118/0118 35012G25KT P6SM -SHRA FEW040 SCT060 BKN080
      TEMPO 3118/3122 35010KT
     FM010000 31010G16KT P6SM FEW080
     FM010600 02006KT P6SM SKC=

USA.gov is the U.S. government's official web portal to all federal, state and local government web resources and services.